Regional Weather Roundup
Issued by NWS

Home | Current Version | Previous Version | Text Only | Print | Product List | Glossary Off
Versions: 1 2 3 4 5 6 7 8 9 10 11 12 13 14 15 16 17 18 19 20 21 22 23 24 25 26 27 28 29 30 31 32 33 34 35 36 37 38 39 40 41 42 43 44 45 46 47 48 49 50

000
ASUS43 KIND 261959
RWRIN

WEATHER ROUNDUP FOR INDIANA
NATIONAL WEATHER SERVICE INDIANAPOLIS IN
400 PM EDT TUE MAY 26 2015

NOTE: "FAIR" INDICATES FEW OR NO CLOUDS BELOW 12,000 FEET WITH NO
SIGNIFICANT WEATHER AND/OR OBSTRUCTIONS TO VISIBILITY.

* - STATION DOES NOT REPORT WEATHER SUCH AS PRECIPITATION OR FOG.

+ - STATION NOT QUALITY CONTROLLED BY THE NATIONAL WEATHER SERVICE.
    USE DATA WITH CAUTION...ESPECIALLY DEWPOINT AND RELATIVE
    HUMIDITY OBSERVATIONS.

INZ001>003-010>013-019-020-262100-
NORTHWEST INDIANA

CITY           SKY/WX    TMP DP  RH WIND       PRES   REMARKS
GARY /AIRPORT/ LGT RAIN  68  64  88 S14       29.84F
MONTICELLO +   CLOUDY    68  64  85 SW17G26   29.88S
RENSSELAER +   CLOUDY    72  68  88 SW21G28   29.86F

$$

LMZ046-743>745-262100-
SOUTHERN LAKE MICHIGAN

STATION/POSITION TIME  TEMP    WIND        PRES    WAVE
                       AIR SEA DIR/SP/G            HT
                 (UTC) (F)     (DEG/KT/KT) (MB)    (FT)
BURNS HARBOR     1900   66     210/ 15/ 23 1010.5S
MICHIGAN CITY    1900   72     170/ 22/ 29   N/A
5NW MICH CITY    1900   67 52  230/ 17/ 23   N/A     2

$$

INZ004-005-014>016-021>024-262100-
NORTH CENTRAL INDIANA

CITY           SKY/WX    TMP DP  RH WIND       PRES   REMARKS
ELKHART        CLOUDY    72  68  88 SW12G23   29.87R
GOSHEN         CLOUDY    77  65  66 S28G43    29.86S
SOUTH BEND     CLOUDY    75  69  81 S18G29    29.84F
WARSAW +       CLOUDY    77  64  65 S12G18    29.88R

$$

INZ006>009-017-018-025>027-262100-
NORTHEAST INDIANA

CITY           SKY/WX    TMP DP  RH WIND       PRES   REMARKS
ANGOLA *+      PTSUNNY   77  70  78 SW13      29.88F
FORT WAYNE     LGT RAIN  75  67  76 S24G35    29.91S

$$

INZ028-029-035-036-043>045-051>053-262100-
WEST CENTRAL INDIANA

CITY           SKY/WX    TMP DP  RH WIND       PRES   REMARKS
CRAWFORDSVL +  CLOUDY    78  57  48 SW20G26   29.90F
GREENCASTLE +  CLOUDY    73  63  68 S7        29.92F
LAFAYETTE      CLOUDY    73  64  73 W10G20    29.86F
TERRE HAUTE    PTSUNNY   80  62  54 SW18G33   29.90F

$$

INZ030>032-037>040-046>048-054>057-064-065-262100-
CENTRAL INDIANA

CITY           SKY/WX    TMP DP  RH WIND       PRES   REMARKS
ANDERSON       PTSUNNY   70  66  88 S17G29    29.97S FOG
COLUMBUS       LGT RAIN  68  66  94 SW13G18   29.97F
GREENWOOD *+   CLOUDY    70  66  88 S9        29.96F
INDIANAPOLIS   CLOUDY    73  65  75 S18       29.91F
-EAGLE CREEK   CLOUDY    74  65  73 S13G20    29.92F
KOKOMO *+      CLOUDY    77  66  69 SW22G29   29.91S
MT COMFORT *+  CLOUDY    70 N/A N/A S12G17    29.96F
SHELBYVILLE    LGT RAIN  73  68  84 S13       29.96F

$$

INZ033-034-041-042-049-050-058-059-262100-
EAST CENTRAL INDIANA

CITY           SKY/WX    TMP DP  RH WIND       PRES   REMARKS
MUNCIE         LGT RAIN  71  67  87 SW9G21    29.95S FOG

$$

INZ060-061-067>069-081>083-085>088-262100-
SOUTHWEST INDIANA

CITY           SKY/WX    TMP DP  RH WIND       PRES   REMARKS
EVANSVILLE     PTSUNNY   79  63  57 S20       29.97F
HUNTINGBURG *+ PTSUNNY   79  64  61 SW15G28   29.98S

$$

INZ062-063-066-070>080-084-089>092-262100-
SOUTH CENTRAL AND SOUTHEAST INDIANA

CITY           SKY/WX    TMP DP  RH WIND       PRES   REMARKS
BLOOMINGTON    CLOUDY    77  67  71 S10G18    29.94F
MADISON *+     CLOUDY    70  66  88 S10G18    30.01F
SEYMOUR +      LGT RAIN  72  68  88 SW10      29.98R

$$




USA.gov is the U.S. government's official web portal to all federal, state and local government web resources and services.